Погода Охотский Перевоз

Погода Охотский Перевоз : погода сейчас, прогноз погоды и архив. Всё, что Вы хотите узнать о погоде Охотский Перевоз!

Поиск расширенной информации на нашем сайте:

Другие новости

Новости СМИ2

Главная страница сайта

Новости сайта

03.07.2017

Напоминаем, что на нашем специализированном сайте Метеоцентр.Азия вы можете получить высокодетализированные автоматические прогнозы погоды по пунктам России, СНГ и мира в авиационном формате (включающие направление и скорость ветра, видимость, явления погоды, количество и форму облачности, нижнюю и верхнюю границу облачности).

Рекомендуем: Парк отдыха веслево Платная рыбалка.

Погода Охотский Перевоз - сегодня

Время (UTC), дата Ветер
(°,м/с) 
Видим.   Явления Облачность Т
(°С)
Тd
(°С)
f(%) Тe
(°С)
Pmin
(гПа)
dP
(гПа)
Po
(мм)
O2
(г/м3)
Тmin Tmax R s Состояние
почвы
09 20.07.17 200 (Ю) 10 км  слаб. дождь  10/10 600 м 
[Frnb]
+15.2 +13.8 91 +22  1001.7  0.8  739  279    +16.8     
12 20.07.17 220 (ЮЗ) 20000 м  в посл. час дождь  10/10 600 м 
[Frnb]
+13.9 +12.8 93 +20  1002.4  0.6  739  281           
15 20.07.17 230 (ЮЗ) 10 км  {дождь}  10/10 1000 м 
[Sc]
+13 +12.1 94 +18  1003.3  0.9  740  282           
18 20.07.17 210 (ЮЗ) 10 км  {дождь}  10/10 1000 м 
[Sc]
+12.8 +11.7 93 +18  1003.6  0.3  740  283           
21 20.07.17 170 (Ю) 20000 м    10/10 1000 м 
[Sc]
+13.3 +11.2 87 +16  1004.2  0.5  741  282  +12.6    0.3    влажная 
00 21.07.17 180 (Ю) 20000 м    10/10 600 м 
[Frnb]
+13.6 +11.5 87 +17  1005  0.8  741  282           
03 21.07.17 180 (Ю) 10 км  слаб. дождь{морось}  10/10 600 м 
[Frnb]
+14.6 +12.6 88 +20  1005.2  0.3  741  281           
06 21.07.17 310 (СЗ) 10 км  слаб. морось{дождь}  10/10 600 м 
[Frnb]
+14.6 +13.2 91 +22  1005.7  0.5  742  281           
09 21.07.17 тихо ()   20000 м  {морось}  10/10 1000 м 
[Frnb]
+15.2 +12.9 86 +21  1006.7  743  281    +15.6  0.9     
12 21.07.17 тихо ()   20000 м  {морось}  8/8 1000 м 
[Sc]
+14.6 +12.8 89 +20  1007.2  0.4  743  282           
15 21.07.17 310 (СЗ) 10 км    1/1 1000 м 
[Sc]
+11.4 +11 97 +16  1008  0.7  743  285           
18 21.07.17 тихо ()   10 км    10/10 600 м кучево-дожд. 
[Cb calv]
+9.4 +9.4 100 +10  1008.5  0.4  744  288           
21 21.07.17 тихо ()   0500 м  туман  ?/?  
+9.6 +9.6 100 +10  1008.7  0.2  744  288  +8.4        влажная 
00 22.07.17 170 (Ю) 20000 м  {туман}  ясно 
+12.9 +10 83 +15  1008.7  0.2  744  284           
03 22.07.17 160 (Ю) 20000 м    8/8 600 м кучево-дожд. 
[Cb calv]
+15.8 +8.3 61 +17  1008.1  -0.5  744  282           
06 22.07.17 010 (С) 20000 м    8/8 600 м кучево-дожд. 
[Cb calv]
+15.9 +7 55 +17  906.8  -1.1  735  279           
09 22.07.17 240 (ЮЗ) 20000 м    9/9 600 м кучево-дожд. 
[Cb calv]
+14.1 +7.9 66 +14  996.7  -0.2  735  280    +16.8       
12 22.07.17 150 (ЮВ) 20000 м  в посл. час ливневой дождь  9/9 600 м кучево-дожд. 
[Cb calv]
+12 +7.2 72 +13  996.8  735  283           
15 22.07.17 250 (З) 10 км    6/6 600 м кучево-дожд. 
[Cb calv]
+7.5 +7.3 99 +8  1006.9  -0.3  742  290           
18 22.07.17 320 (СЗ) 10 км    10/10 600 м кучево-дожд. 
[Cb calv]
+7.8 +7.2 96 +9  1006.7  -0.2  742  290           
21 22.07.17 240 (ЮЗ) 20000 м  в посл. час ливневой дождь  6/6 600 м кучево-дожд. 
[Cb calv]
+8.2 +7.8 97 +9  1006.7  742  289  +6    0.1    влажная 
00 23.07.17 240 (ЮЗ) 10 км  слаб. дождь  10/10 600 м 
[Cu Sc]
+11 +9.8 92 +13  1006.5  742  286           
03 23.07.17 200 (Ю) 10 км  слаб. дождь  10/10 600 м 
[Frnb]
+10.4 +9.6 95 +13  1006.4  -0.2  742  286           
06 23.07.17 070 (В) 20000 м  в посл. час дождь  9/9 600 м 
[Frnb]
+13.3 +11 86 +17  1006.1  -0.1  742  283           
09 23.07.17 040 (СВ) 20000 м    9/8 600 м кучево-дожд., верхняя 
[Cb calv|Ci fib]
+15.8 +9.9 68 +18  1005.7  -0.3  742  281    +15.2     
Время (UTC), дата Ветер
(°,м/с) 
Видим.   Явления Облачность Т
(°С)
Тd
(°С)
f(%) Тe
(°С)
Pmin
(гПа)
dP
(гПа)
Po
(мм)
O2
(г/м3)
Тmin Tmax R s Состояние
почвы

Для получения пояснительной информации подведите курсор к названию столбца.

ПОГОДА Охотский Перевоз - архив

Всё, что Вы хотите узнать о погоде Охотский Перевоз - удобно и подробно!

Выберите нужную дату (начиная с 1 января 2015* года) и нажмите кнопку "Найти".
Будут отображены архивные сводки погоды по пункту Охотский Перевоз, начиная с указанной даты.


Отображать данные в формате CSV (для использования в таблицах Excel)


Внимание! Наш архив погоды предназначен исключительно для личного некоммерческого использования в познавательных целях. Если Вам необходимы официальные справки о состоянии погоды (для производственных, юридических, коммерческих и т.п. целей), обращайтесь в органы Росгидромета.

*Примечание: данная дата относится к архиву по метеостанциям СССР (Россия, СНГ, Балтия).
Архив по метеостанциям Зарубежной Европы и Азии (кроме Китая) хранится 10 дней, по другим регионам земного шара (Китай, Африка, Америка, Австралия, Океания) - 1 день.

Охотский Перевоз - район местоположения метеостанции


Название, широта, долгота, высота метеостанции:
Охотский Перевоз 61.9°ш. 135.5°д. 140 м над ур. моря [Российская Федерация]

Дополнительная информация

В oтличие oт бoльшинства пoгoдных сайтoв мы публикуем пoдрoбную метеoинфoрмацию в детальнoм прoфессиoнальнoм фoрмате.

Характеристики температуры и влажнoсти вoздуха измеряются на высoте 2 м в тени вдали oт зданий и деревьев.
Скoрoсть ветра измеряется на высoте 10 м (на урoвне рoста челoвека скoрoсть ветра ниже в 1.5-2 раза). Если метеoстанция нахoдится в гoрoде или в лесу, тo скoрoсть ветра занижена на 2-4 м/с пo сравнению с oткрытым местoм. Скoрoсть ветра над акватoриями крупных рек и oзёр, а также на вершинах хoлмoв на 2-5 м/с выше, чем в oбычных услoвиях.
Атмoсфернoе давление в разных тoчках местнoсти мoжет значительнo oтличаться oт давления на метеoстанции, в зависимoсти oт услoвий рельефа (при пoдъёме на 10 м давление пoнижается примернo на 1 мм рт.ст.).